Regional Weather Roundup
Issued by NWS Green Bay, WI

Home | Current Version | Previous Version | Text Only | Print | Product List | Glossary On
Versions: 1 2 3 4 5 6 7 8 9 10 11 12 13 14 15 16 17 18 19 20 21 22 23 24 25 26 27 28 29 30 31 32 33 34 35 36 37 38 39 40 41 42 43 44 45 46 47 48 49 50
273
ASUS43 KGRB 250400
RWRGRB

NORTH-CENTRAL AND NORTHEAST WISCONSIN REGIONAL WEATHER ROUNDUP
NATIONAL WEATHER SERVICE GREEN BAY WI
1100 PM CDT TUE MAY 24 2016

WIZ005-009-010>012-018-019-250500-
NORTH CENTRAL WISCONSIN

CITY           SKY/WX    TMP DP  RH WIND       PRES   REMARKS
IRONWOOD       CLEAR     52  52 100 CALM      29.98S
MANITOWISH WTR NOT AVBL
ARBOR VITAE    NOT AVBL
EAGLE RIVER    NOT AVBL
LAND O LAKES   NOT AVBL
RHINELANDER    CLEAR     58  56  93 CALM      30.00S
PHILLIPS       NOT AVBL
ANTIGO         NOT AVBL
TOMAHAWK       NOT AVBL
MERRILL        NOT AVBL
$$

WIZ013-073-250500-
NORTHEAST WISCONSIN

CITY           SKY/WX    TMP DP  RH WIND       PRES   REMARKS
IRON MOUNTAIN  MOCLDY    60  58  92 CALM      29.97R FOG
MARINETTE      PTCLDY    57  57 100 N5        29.96S
$$

WIZ017-030-035>037-045-250500-
CENTRAL WISCONSIN

CITY           SKY/WX    TMP DP  RH WIND       PRES   REMARKS
MEDFORD        NOT AVBL
WAUSAU         PTCLDY    65  58  78 CALM      29.95R
MOSINEE        NOT AVBL
MARSHFIELD     CLEAR     66  56  70 CALM      29.95S
WISC RAPIDS    CLEAR     61  56  83 CALM      29.96S
STEVENS POINT  NOT AVBL
WAUPACA        NOT AVBL
SHAWANO        NOT AVBL
CLINTONVILLE   NOT AVBL
WAUTOMA        CLEAR     61  57  87 CALM      29.96R
$$

WIZ038-039-048-051-250500-
FOX VALLEY

CITY           SKY/WX    TMP DP  RH WIND       PRES   REMARKS
NWS GREEN BAY  CLEAR     65  58  78 CALM      29.94S
APPLETON       PTCLDY    64  54  68 CALM      29.94R
OSHKOSH        CLEAR     66  58  75 SW3       29.95S
FOND DU LAC    CLEAR     62  60  93 CALM      29.95S
$$

WIZ022-050-052-250500-
EAST CENTRAL WISCONSIN

CITY           SKY/WX    TMP DP  RH WIND       PRES   REMARKS
EPHRAIM        NOT AVBL
STURGEON BAY   NOT AVBL
MANITOWOC      NOT AVBL
SHEBOYGAN      CLEAR     63  56  78 CALM      29.96S
$$

LMZ563-521-522-541>543-250500-
LAKESHORE

STATION/POSITION TIME  TEMP    WIND        PRES    VSBY  WAVE
                       AIR SEA DIR/SP/G                  HT/PER
                 (UTC) (F)     (DEG/KT/KT) (MB)    (MI)  (FT/S)
SHEBOYGAN LKSHOR 0300   62     190/  5/  6 1014.5R
KEWAUNEE LKSHORE 0300   56     180/  5/  5 1013.3R
ALGOMA MARINA    0317             CALM       N/A
NORTHPORT PIER   0300   53     170/  6/  8 1013.9F
N MID LAKE BUOY  0250   48 44  160/  8/ 10 1014.1R         2/ 5
SISTER BAY LKSHO 0319   57     160/  6/  8   N/A
CHAMBERS ISLAND  0300   57      10/  1/  6 1014.2R
MENOMINEE LKSHOR 0300   57     350/  3/  5 1013.0R
$$




USA.gov is the U.S. government's official web portal to all federal, state and local government web resources and services.